Notices

What's New in latest Release from April 7th, 2021:

- Updated Glossary, including Speed of Maximum Gust, and Total Hourly Precipitation

- Updated national and regional climate services offices contacts and prices information

- Addition of station inventory lists for 1981-2010, 1971-2000, and 1961-1990 Normals.

If you haven't already, please take our survey and provide feedback about our website: https://eccc.sondage-survey.ca/f/LanguageSelection.aspx?s=442ca660-fcf1-47c0-95a9-59707d6fd709

Hourly Data Report for November 01, 2017

VICTORIA UNIVERSITY CS
BRITISH COLUMBIA

48°27'25.200" N
123°18'16.600" W
60.10 m
1018598
71783
WYJ

Download Data

Hourly Data (November 2017)
Hourly Data Report for November 1, 2017
TIME
LST
Temp Definition
°C
Dew Point Definition
°C
Rel Hum Definition
%
Precip. Amount Definition
mm

Wind Dir Definition
10's deg

Wind Spd Definition
km/h
Visibility Definition
km
Stn Press Definition
kPa
Hmdx Definition


Wind Chill Definition


Weather Definition


00:00 6.8 5.4 91 0.0 26 3   100.14     LegendNANA
01:00 8.0 7.2 95 0.0 25 3   100.10     LegendNANA
02:00 9.0 7.2 89 0.0 25 6   100.07     LegendNANA
03:00 9.5 7.0 84 0.0 26 7   100.04     LegendNANA
04:00 8.5 6.1 85 0.0 28 3   99.99     LegendNANA
05:00 7.8 6.2 89 0.0 25 5   99.96     LegendNANA
06:00 8.9 6.1 83 0.0 25 8   100.00     LegendNANA
07:00 9.0 5.8 80 0.0 27 5   100.08     LegendNANA
08:00 9.0 6.0 81 0.0 26 5   100.08     LegendNANA
09:00 9.9 7.0 82 0.0 25 6   100.06     LegendNANA
10:00 11.2 7.0 76 0.0 26 5   100.09     LegendNANA
11:00 12.3 6.6 68 0.0 27 3   100.15     LegendNANA
12:00 12.0 6.4 69 0.0 2 7   100.16     LegendNANA
13:00 13.1 5.4 59 0.0 8 4   100.13     LegendNANA
14:00 12.5 4.8 59 0.0 3 7   100.13     LegendNANA
15:00 12.1 6.3 68 0.0 14 2   100.13     LegendNANA
16:00 9.9 6.7 81 0.0 14 3   100.11     LegendNANA
17:00 9.7 7.4 86 0.0 15 3   100.11     LegendNANA
18:00 9.9 6.9 82 0.0 19 5   100.07     LegendNANA
19:00 9.6 5.3 74 0.0 24 5   100.03     LegendNANA
20:00 9.8 4.4 69 0.0 25 7   100.02     LegendNANA
21:00 9.7 4.3 69 0.0 25 10   100.03     LegendNANA
22:00 8.8 4.6 75 0.0 24 10   99.99     LegendNANA
23:00 8.0 5.1 82 0.0 24 8   99.93     LegendNANA

Notes on Data Quality.

Legend

  • E = Estimated
  • M = Missing
  • NA = Not Available*
  • [empty] = Indicates an unobserved value
Date modified: